Location: Essen
(51.4609°N, 7.0127°E)
Time: 18:18:03
(UTC+01:00)

ISS - Pass Details

Date: 13 November 2017
Orbit: 401 x 407 km, 51.6° (Epoch: 18 November)

Event Time Altitude Azimuth Distance (km) Brightness Sun altitude
Exits shadow 05:02:52 28° 107° (ESE) 801 -1.8 -25.4°
Drops below altitude 10° 05:04:31 10° 105° (ESE) 1,455 -0.1 -25.1°
Sets 05:06:36 0° 104° (ESE) 2,313 1.2 -24.8°
